,,,PA_Meas_PMT16A,,PR_Meas_QMR101_102,,RH_Meas_QMH101,,SR_Meas_QMS101,,TA_Meas_QMH101,,GenWind,,GenWind,
date,time,status,PA,status,PR,status,RH,status,SR,status,TA,status,DirAvg,status,SpdAvg,
2008-06-13, 00:00:04,VALID,1005.63,VALID,0,VALID,86.6641,VALID,0,VALID,24.6983,VALID,157,VALID,2.05859,
2008-06-13, 00:01:04,VALID,1005.6,VALID,0,VALID,87.2591,VALID,0,VALID,24.6983,VALID,156,VALID,1.53477,
2008-06-13, 00:02:04,VALID,1005.61,VALID,0,VALID,88.0144,VALID,0,VALID,24.7177,VALID,142,VALID,1.18711,
2008-06-13, 00:03:04,VALID,1005.6,VALID,0,VALID,88.4874,VALID,0,VALID,24.7159,VALID,141,VALID,2.61406,
2008-06-13, 00:04:04,VALID,1005.59,VALID,0,VALID,88.2509,VALID,0,VALID,24.6964,VALID,154,VALID,1.31953,
2008-06-13, 00:05:04,VALID,1005.62,VALID,0,VALID,88.3958,VALID,0,VALID,24.7391,VALID,126,VALID,1.01719,
2008-06-13, 00:06:04,VALID,1005.61,VALID,0,VALID,88.5637,VALID,0,VALID,24.7177,VALID,125,VALID,0.940234,
2008-06-13, 00:07:04,VALID,1005.58,VALID,0,VALID,88.5179,VALID,0,VALID,24.6983,VALID,89,VALID,1.08359,
2008-06-13, 00:08:04,VALID,1005.6,VALID,0,VALID,88.7162,VALID,0,VALID,24.7001,VALID,99,VALID,1.02109,
2008-06-13, 00:09:04,VALID,1005.59,VALID,0,VALID,89.0367,VALID,0,VALID,24.6398,VALID,100,VALID,1.20586,
2008-06-13, 00:10:04,VALID,1005.61,VALID,0,VALID,89.4334,VALID,0,VALID,24.6009,VALID,122,VALID,0.8625,
2008-06-13, 00:11:04,VALID,1005.6,VALID,0,VALID,89.6775,VALID,0,VALID,24.5601,VALID,122,VALID,0.935156,
2008-06-13, 00:12:04,VALID,1005.6,VALID,0,VALID,89.8987,VALID,0,VALID,24.5425,VALID,113,VALID,0.755859,
2008-06-13, 00:13:04,VALID,1005.6,VALID,0,VALID,90.1886,VALID,0,VALID,24.5017,VALID,143,VALID,1.00508,
2008-06-13, 00:14:04,VALID,1005.62,VALID,0,VALID,90.6082,VALID,0,VALID,24.5035,VALID,134,VALID,0.740625,
2008-06-13, 00:15:04,VALID,1005.64,VALID,0.5,VALID,90.9744,VALID,0,VALID,24.4451,VALID,129,VALID,0.321875,
2008-06-13, 00:16:04,VALID,1005.63,VALID,0.5,VALID,90.5777,VALID,0,VALID,24.3673,VALID,185,VALID,1.15742,
2008-06-13, 00:17:04,VALID,1005.59,VALID,0,VALID,90.387,VALID,0,VALID,24.2523,VALID,193,VALID,1.65352,
2008-06-13, 00:18:04,VALID,1005.55,VALID,0.5,VALID,90.7455,VALID,0,VALID,24.1123,VALID,184,VALID,1.19648,
2008-06-13, 00:19:04,VALID,1005.54,VALID,0,VALID,91.0812,VALID,0,VALID,24.0363,VALID,157,VALID,1.15859,
2008-06-13, 00:20:04,VALID,1005.53,VALID,0,VALID,91.5084,VALID,0,VALID,23.9779,VALID,157,VALID,1.01211,
2008-06-13, 00:21:04,VALID,1005.52,VALID,0,VALID,91.5389,VALID,0,VALID,23.9,VALID,171,VALID,1.23008,
2008-06-13, 00:22:04,VALID,1005.5,VALID,0,VALID,91.9204,VALID,0,VALID,23.8611,VALID,129,VALID,0.904688,
2008-06-13, 00:23:04,VALID,1005.47,VALID,0,VALID,92.2942,VALID,0,VALID,23.8221,VALID,132,VALID,0.594141,
2008-06-13, 00:24:04,VALID,1005.45,VALID,0,VALID,92.1264,VALID,0,VALID,23.7832,VALID,182,VALID,0.758984,
2008-06-13, 00:25:04,VALID,1005.44,VALID,0,VALID,92.4315,VALID,0,VALID,23.7443,VALID,182,VALID,0.854688,
2008-06-13, 00:26:04,VALID,1005.39,VALID,0,VALID,92.546,VALID,0,VALID,23.7248,VALID,217,VALID,0.921875,
2008-06-13, 00:27:04,VALID,1005.38,VALID,0,VALID,92.7977,VALID,0,VALID,23.7053,VALID,208,VALID,0.742578,
2008-06-13, 00:28:04,VALID,1005.36,VALID,0,VALID,93.0266,VALID,0,VALID,23.6859,VALID,155,VALID,0.403906,
2008-06-13, 00:29:04,VALID,1005.31,VALID,0,VALID,93.1181,VALID,0,VALID,23.6664,VALID,162,VALID,0.283984,
2008-06-13, 00:30:04,VALID,1005.31,VALID,0,VALID,93.2631,VALID,0,VALID,23.6664,VALID,164,VALID,0.0183594,
2008-06-13, 00:31:04,VALID,1005.3,VALID,0,VALID,93.4233,VALID,0,VALID,23.6257,VALID,164,VALID,0.206641,
2008-06-13, 00:32:04,VALID,1005.26,VALID,0,VALID,93.5301,VALID,0,VALID,23.6469,VALID,164,VALID,0.0078125,
2008-06-13, 00:33:04,VALID,1005.27,VALID,0,VALID,93.553,VALID,0,VALID,23.6062,VALID,131,VALID,0.207031,
2008-06-13, 00:34:04,VALID,1005.24,VALID,0,VALID,93.5911,VALID,0,VALID,23.5868,VALID,131,VALID,0,
2008-06-13, 00:35:04,VALID,1005.24,VALID,0,VALID,93.6292,VALID,0,VALID,23.5673,VALID,124,VALID,0.353906,
2008-06-13, 00:36:04,VALID,1005.17,VALID,0,VALID,93.4538,VALID,0,VALID,23.5496,VALID,56,VALID,0.53125,
2008-06-13, 00:37:04,VALID,1005.2,VALID,0,VALID,93.3851,VALID,0,VALID,23.4894,VALID,283,VALID,0.202344,
2008-06-13, 00:38:04,VALID,1005.17,VALID,0,VALID,93.3775,VALID,0,VALID,23.4523,VALID,283,VALID,0.00234375,
2008-06-13, 00:39:04,VALID,1005.14,VALID,0,VALID,93.347,VALID,0,VALID,23.4523,VALID,282,VALID,0.269531,
2008-06-13, 00:40:04,VALID,1005.09,VALID,0,VALID,93.2478,VALID,0,VALID,23.4116,VALID,178,VALID,0.365625,
2008-06-13, 00:41:04,VALID,1005.07,VALID,0,VALID,93.4538,VALID,0,VALID,23.4328,VALID,144,VALID,0.374219,
2008-06-13, 00:42:04,VALID,1005.04,VALID,0,VALID,93.5301,VALID,0,VALID,23.4523,VALID,137,VALID,0.342578,
2008-06-13, 00:43:04,VALID,1005.02,VALID,0,VALID,93.4996,VALID,0,VALID,23.4523,VALID,67,VALID,0.419141,
2008-06-13, 00:44:04,VALID,1004.99,VALID,0,VALID,93.5911,VALID,0,VALID,23.4116,VALID,67,VALID,0.237891,
2008-06-13, 00:45:04,VALID,1004.93,VALID,0,VALID,93.7666,VALID,0,VALID,23.4328,VALID,67,VALID,0.065625,
2008-06-13, 00:46:04,VALID,1004.94,VALID,0,VALID,93.942,VALID,0,VALID,23.4134,VALID,66,VALID,0.388672,
2008-06-13, 00:47:04,VALID,1004.92,VALID,0,VALID,93.9802,VALID,0.100563,VALID,23.3921,VALID,66,VALID,0.321094,
2008-06-13, 00:48:04,VALID,1004.92,VALID,0,VALID,93.9878,VALID,0,VALID,23.4134,VALID,20,VALID,0.71875,
2008-06-13, 00:49:04,VALID,1004.89,VALID,0,VALID,94.1938,VALID,0,VALID,23.3921,VALID,9,VALID,0.719141,
2008-06-13, 00:50:04,VALID,1004.88,VALID,0,VALID,94.2701,VALID,0,VALID,23.3921,VALID,5,VALID,0.585938,
2008-06-13, 00:51:04,VALID,1004.86,VALID,0,VALID,94.2701,VALID,0,VALID,23.4134,VALID,4,VALID,0.685547,
2008-06-13, 00:52:04,VALID,1004.81,VALID,0,VALID,94.3158,VALID,0,VALID,23.3727,VALID,4,VALID,0.341016,
2008-06-13, 00:53:04,VALID,1004.8,VALID,0,VALID,94.2701,VALID,0,VALID,23.3532,VALID,4,VALID,0.315625,
2008-06-13, 00:54:04,VALID,1004.77,VALID,0,VALID,94.3387,VALID,0,VALID,23.3337,VALID,4,VALID,0.0113281,
2008-06-13, 00:55:04,VALID,1004.72,VALID,0,VALID,94.4761,VALID,0,VALID,23.3337,VALID,4,VALID,0,
2008-06-13, 00:56:04,VALID,1004.73,VALID,0,VALID,94.4837,VALID,0,VALID,23.3337,VALID,4,VALID,0,
2008-06-13, 00:57:04,VALID,1004.68,VALID,0,VALID,94.5295,VALID,0,VALID,23.3355,VALID,4,VALID,0,
2008-06-13, 00:58:04,VALID,1004.62,VALID,0,VALID,94.5295,VALID,0,VALID,23.3355,VALID,4,VALID,0.217578,
2008-06-13, 00:59:04,VALID,1004.61,VALID,0,VALID,94.4608,VALID,0,VALID,23.2754,VALID,4,VALID,0.438281,
2008-06-13, 01:00:04,VALID,1004.6,VALID,0,VALID,94.5371,VALID,0.100563,VALID,23.2966,VALID,4,VALID,0.385938,
2008-06-13, 01:01:04,VALID,1004.52,VALID,0,VALID,94.6286,VALID,0.100563,VALID,23.2559,VALID,40,VALID,0.555078,
2008-06-13, 01:02:04,VALID,1004.48,VALID,0,VALID,94.6973,VALID,0,VALID,23.2754,VALID,67,VALID,0.542188,
2008-06-13, 01:03:04,VALID,1004.49,VALID,0,VALID,94.7354,VALID,0.100563,VALID,23.2966,VALID,67,VALID,0.458594,
2008-06-13, 01:04:04,VALID,1004.44,VALID,0,VALID,94.7431,VALID,0.100563,VALID,23.2541,VALID,67,VALID,0.132422,
2008-06-13, 01:05:04,VALID,1004.44,VALID,0,VALID,94.7888,VALID,0,VALID,23.2771,VALID,67,VALID,0.0574219,
2008-06-13, 01:06:04,VALID,1004.45,VALID,0,VALID,94.7431,VALID,0,VALID,23.2577,VALID,67,VALID,0.427734,
2008-06-13, 01:07:04,VALID,1004.4,VALID,0,VALID,94.766,VALID,0,VALID,23.2152,VALID,67,VALID,0.175,
2008-06-13, 01:08:04,VALID,1004.39,VALID,0,VALID,94.7888,VALID,0,VALID,23.217,VALID,67,VALID,0.00507812,
2008-06-13, 01:09:04,VALID,1004.36,VALID,0,VALID,94.7736,VALID,0.100563,VALID,23.1975,VALID,67,VALID,0.213281,
2008-06-13, 01:10:04,VALID,1004.38,VALID,0,VALID,94.8041,VALID,0.100563,VALID,23.1975,VALID,67,VALID,0.255078,
2008-06-13, 01:11:04,VALID,1004.38,VALID,0.5,VALID,94.8117,VALID,0.100563,VALID,23.1586,VALID,67,VALID,0.330859,
2008-06-13, 01:12:04,VALID,1004.39,VALID,0,VALID,94.8728,VALID,0.100563,VALID,23.178,VALID,59,VALID,0.312891,
2008-06-13, 01:13:04,VALID,1004.37,VALID,0,VALID,94.9033,VALID,0,VALID,23.178,VALID,31,VALID,0.174609,
2008-06-13, 01:14:04,VALID,1004.42,VALID,0,VALID,94.9414,VALID,0.100563,VALID,23.1975,VALID,31,VALID,0.112891,
2008-06-13, 01:15:04,VALID,1004.39,VALID,0,VALID,94.9185,VALID,0,VALID,23.1975,VALID,31,VALID,0.0113281,
2008-06-13, 01:16:04,VALID,1004.41,VALID,0,VALID,94.9262,VALID,0,VALID,23.1975,VALID,31,VALID,0.225781,
2008-06-13, 01:17:04,VALID,1004.4,VALID,0,VALID,94.888,VALID,0.100563,VALID,23.178,VALID,31,VALID,0.366797,
2008-06-13, 01:18:04,VALID,1004.4,VALID,0,VALID,94.888,VALID,0,VALID,23.1586,VALID,31,VALID,0.346094,
2008-06-13, 01:19:04,VALID,1004.4,VALID,0,VALID,94.9109,VALID,0.100563,VALID,23.1586,VALID,31,VALID,0.333594,
2008-06-13, 01:20:04,VALID,1004.36,VALID,0,VALID,94.9719,VALID,0.100563,VALID,23.1586,VALID,31,VALID,0.269531,
2008-06-13, 01:21:04,VALID,1004.37,VALID,0,VALID,95.0253,VALID,0,VALID,23.1586,VALID,31,VALID,0.416797,
2008-06-13, 01:22:04,VALID,1004.32,VALID,0,VALID,95.0482,VALID,0.100563,VALID,23.1586,VALID,31,VALID,0.622266,
2008-06-13, 01:23:04,VALID,1004.29,VALID,0,VALID,95.1016,VALID,0.100563,VALID,23.1586,VALID,31,VALID,0.551953,
2008-06-13, 01:24:04,VALID,1004.29,VALID,0,VALID,95.1398,VALID,0.100563,VALID,23.1586,VALID,29,VALID,0.557422,
2008-06-13, 01:25:04,VALID,1004.28,VALID,0,VALID,95.1627,VALID,0.100563,VALID,23.1586,VALID,28,VALID,0.561328,
2008-06-13, 01:26:04,VALID,1004.24,VALID,0,VALID,95.0558,VALID,0.100563,VALID,23.1391,VALID,18,VALID,0.553516,
2008-06-13, 01:27:04,VALID,1004.24,VALID,0,VALID,95.0558,VALID,0.100563,VALID,23.1214,VALID,18,VALID,0.370703,
2008-06-13, 01:28:04,VALID,1004.24,VALID,0,VALID,95.033,VALID,0.100563,VALID,23.0807,VALID,18,VALID,0.302344,
2008-06-13, 01:29:04,VALID,1004.23,VALID,0,VALID,95.0635,VALID,0.100563,VALID,23.0613,VALID,18,VALID,0.239844,
2008-06-13, 01:30:04,VALID,1004.24,VALID,0,VALID,95.0787,VALID,0,VALID,23.0418,VALID,18,VALID,0.362109,
2008-06-13, 01:31:04,VALID,1004.21,VALID,0,VALID,95.1169,VALID,0.100563,VALID,23.0224,VALID,18,VALID,0.321484,
2008-06-13, 01:32:04,VALID,1004.22,VALID,0,VALID,95.1932,VALID,0.100563,VALID,23.0224,VALID,18,VALID,0.376953,
2008-06-13, 01:33:04,VALID,1004.2,VALID,0,VALID,95.1932,VALID,0,VALID,23.0241,VALID,18,VALID,0.178906,
2008-06-13, 01:34:04,VALID,1004.21,VALID,0,VALID,95.1932,VALID,0.100563,VALID,23.0241,VALID,18,VALID,0.267969,
2008-06-13, 01:35:04,VALID,1004.16,VALID,0,VALID,95.1627,VALID,0.100563,VALID,22.9834,VALID,18,VALID,0.43125,
2008-06-13, 01:36:04,VALID,1004.19,VALID,0,VALID,95.2542,VALID,0.100563,VALID,23.0029,VALID,18,VALID,0.492578,
2008-06-13, 01:37:04,VALID,1004.16,VALID,0,VALID,95.1169,VALID,0.100563,VALID,22.964,VALID,18,VALID,0.326953,
2008-06-13, 01:38:04,VALID,1004.2,VALID,0,VALID,95.1169,VALID,0.100563,VALID,22.9657,VALID,18,VALID,0.349219,
2008-06-13, 01:39:04,VALID,1004.18,VALID,0,VALID,95.0635,VALID,0.100563,VALID,22.9251,VALID,18,VALID,0.269922,
2008-06-13, 01:40:04,VALID,1004.17,VALID,0,VALID,95.1855,VALID,0.100563,VALID,22.9056,VALID,18,VALID,0.321094,
2008-06-13, 01:41:04,VALID,1004.13,VALID,0,VALID,95.2618,VALID,0.100563,VALID,22.9657,VALID,18,VALID,0.475391,
2008-06-13, 01:42:04,VALID,1004.11,VALID,0,VALID,95.3152,VALID,0.100563,VALID,22.9251,VALID,18,VALID,0.514063,
2008-06-13, 01:43:04,VALID,1004.1,VALID,0,VALID,95.3457,VALID,0.100563,VALID,22.964,VALID,17,VALID,0.609766,
2008-06-13, 01:44:04,VALID,1004.1,VALID,0,VALID,95.3534,VALID,0.100563,VALID,22.9445,VALID,16,VALID,0.485938,
2008-06-13, 01:45:04,VALID,1004.09,VALID,0,VALID,95.3991,VALID,0.100563,VALID,22.964,VALID,16,VALID,0.485938,
2008-06-13, 01:46:04,VALID,1004.07,VALID,0,VALID,95.3915,VALID,0.100563,VALID,22.964,VALID,15,VALID,0.526953,
2008-06-13, 01:47:04,VALID,1004.04,VALID,0,VALID,95.3534,VALID,0.100563,VALID,22.964,VALID,15,VALID,0.359766,
2008-06-13, 01:48:04,VALID,1003.99,VALID,0,VALID,95.3686,VALID,0.201126,VALID,22.9445,VALID,15,VALID,0.198828,
2008-06-13, 01:49:04,VALID,1003.85,VALID,0,VALID,95.3457,VALID,0.100563,VALID,22.9445,VALID,15,VALID,0.0804688,
2008-06-13, 01:50:04,VALID,1003.9,VALID,0,VALID,95.3305,VALID,0,VALID,22.9073,VALID,15,VALID,0,
2008-06-13, 01:51:04,VALID,1003.73,VALID,0,VALID,95.3915,VALID,0,VALID,22.9268,VALID,15,VALID,0.0273438,
2008-06-13, 01:52:04,VALID,1003.87,VALID,0,VALID,95.3915,VALID,0,VALID,22.9268,VALID,15,VALID,0.0367187,
2008-06-13, 01:53:04,VALID,1004.09,VALID,0,VALID,95.4144,VALID,0.100563,VALID,22.9268,VALID,15,VALID,0.253906,
2008-06-13, 07:35:04,VALID,1007.27,VALID,0,VALID,92.546,VALID,71.6008,VALID,23.9371,VALID,343,VALID,0.476563,
2008-06-13, 07:36:04,VALID,1007.27,VALID,0,VALID,92.6833,VALID,73.7126,VALID,23.9779,VALID,330,VALID,0.482812,
2008-06-13, 07:37:04,VALID,1007.28,VALID,0,VALID,92.4468,VALID,75.1205,VALID,23.9779,VALID,353,VALID,0.777344,
2008-06-13, 07:38:04,VALID,1007.29,VALID,0,VALID,92.4697,VALID,76.1262,VALID,23.9779,VALID,275,VALID,0.50625,
2008-06-13, 07:39:04,VALID,1007.32,VALID,0,VALID,92.5917,VALID,76.4278,VALID,23.9973,VALID,273,VALID,0.00195313,
2008-06-13, 07:40:04,VALID,1007.33,VALID,0,VALID,92.2789,VALID,75.925,VALID,24.0168,VALID,291,VALID,0.892578,
2008-06-13, 07:41:04,VALID,1007.35,VALID,0,VALID,92.3934,VALID,74.6177,VALID,24.0168,VALID,337,VALID,0.340234,
2008-06-13, 07:42:04,VALID,1007.35,VALID,0,VALID,92.2408,VALID,72.707,VALID,23.9973,VALID,1,VALID,0.533203,
2008-06-13, 07:43:04,VALID,1007.34,VALID,0,VALID,92.3934,VALID,70.5952,VALID,24.0168,VALID,335,VALID,0.652344,
2008-06-13, 07:44:04,VALID,1007.34,VALID,0,VALID,92.2408,VALID,70.1929,VALID,23.9955,VALID,344,VALID,0.745703,
2008-06-13, 07:45:04,VALID,1007.35,VALID,0,VALID,92.2484,VALID,70.1929,VALID,24.0168,VALID,300,VALID,0.402734,
2008-06-13, 07:46:04,VALID,1007.36,VALID,0,VALID,92.134,VALID,70.0924,VALID,24.0168,VALID,333,VALID,0.354688,
2008-06-13, 07:47:04,VALID,1007.38,VALID,0,VALID,92.2103,VALID,69.8913,VALID,24.0168,VALID,354,VALID,0.489062,
2008-06-13, 07:48:04,VALID,1007.39,VALID,0,VALID,91.8136,VALID,69.6901,VALID,23.9955,VALID,300,VALID,0.859375,
2008-06-13, 07:49:04,VALID,1007.4,VALID,0,VALID,92.0577,VALID,69.489,VALID,24.0363,VALID,350,VALID,0.524609,
2008-06-13, 07:50:04,VALID,1007.44,VALID,0,VALID,92.2103,VALID,69.5896,VALID,24.0557,VALID,296,VALID,0.820703,
2008-06-13, 07:51:04,VALID,1007.45,VALID,0,VALID,92.3018,VALID,69.9918,VALID,24.0752,VALID,336,VALID,0.492188,
2008-06-13, 07:52:04,VALID,1007.44,VALID,0,VALID,92.4163,VALID,70.6957,VALID,24.0947,VALID,323,VALID,0.347656,
2008-06-13, 07:53:04,VALID,1007.49,VALID,0,VALID,92.3552,VALID,71.3997,VALID,24.0539,VALID,292,VALID,0.403125,
2008-06-13, 07:54:04,VALID,1007.48,VALID,0,VALID,92.34,VALID,72.2042,VALID,24.0734,VALID,339,VALID,0.533984,
2008-06-13, 07:55:04,VALID,1007.49,VALID,0,VALID,92.3247,VALID,72.8076,VALID,24.0947,VALID,352,VALID,0.394922,
2008-06-13, 07:56:04,VALID,1007.5,VALID,0,VALID,92.4163,VALID,73.7126,VALID,24.1142,VALID,350,VALID,0.398047,
2008-06-13, 07:57:04,VALID,1007.53,VALID,0,VALID,92.1798,VALID,74.4166,VALID,24.1336,VALID,287,VALID,1.00586,
2008-06-13, 07:58:04,VALID,1007.55,VALID,0,VALID,92.1874,VALID,75.2211,VALID,24.1336,VALID,298,VALID,0.591406,
2008-06-13, 07:59:04,VALID,1007.55,VALID,0,VALID,92.2866,VALID,75.7239,VALID,24.1531,VALID,337,VALID,0.263672,
2008-06-13, 08:00:04,VALID,1007.57,VALID,0,VALID,92.34,VALID,75.6233,VALID,24.1939,VALID,345,VALID,0.494922,
2008-06-13, 08:01:04,VALID,1007.6,VALID,0,VALID,92.3781,VALID,74.8188,VALID,24.192,VALID,339,VALID,0.164453,
2008-06-13, 08:02:04,VALID,1007.62,VALID,0,VALID,92.195,VALID,74.9194,VALID,24.192,VALID,310,VALID,0.364844,
2008-06-13, 08:03:04,VALID,1007.64,VALID,0,VALID,92.3095,VALID,77.3329,VALID,24.2115,VALID,298,VALID,0.378125,
2008-06-13, 08:04:04,VALID,1007.62,VALID,0,VALID,92.0424,VALID,78.3385,VALID,24.2328,VALID,323,VALID,0.603125,
2008-06-13, 08:05:04,VALID,1007.63,VALID,0,VALID,92.1111,VALID,78.4391,VALID,24.2115,VALID,303,VALID,0.409375,
2008-06-13, 08:06:04,VALID,1007.64,VALID,0,VALID,92.3095,VALID,78.7408,VALID,24.2504,VALID,323,VALID,0.186328,
2008-06-13, 08:07:04,VALID,1007.64,VALID,0,VALID,92.4468,VALID,78.8413,VALID,24.3107,VALID,323,VALID,0.14375,
2008-06-13, 08:08:04,VALID,1007.65,VALID,0,VALID,92.4773,VALID,80.9532,VALID,24.3088,VALID,324,VALID,0.112109,
2008-06-13, 08:09:04,VALID,1007.65,VALID,0,VALID,92.0348,VALID,84.5734,VALID,24.3088,VALID,351,VALID,0.660937,
2008-06-13, 08:10:04,VALID,1007.65,VALID,0,VALID,91.9967,VALID,86.1824,VALID,24.2894,VALID,358,VALID,0.844531,
2008-06-13, 08:11:04,VALID,1007.62,VALID,0,VALID,92.2713,VALID,87.5903,VALID,24.2894,VALID,355,VALID,0.110937,
2008-06-13, 08:12:04,VALID,1007.65,VALID,0,VALID,92.2637,VALID,90.6072,VALID,24.3088,VALID,354,VALID,0.271094,
2008-06-13, 08:13:04,VALID,1007.65,VALID,0,VALID,92.3171,VALID,94.0264,VALID,24.3283,VALID,354,VALID,0.174609,
2008-06-13, 08:14:04,VALID,1007.65,VALID,0,VALID,92.3629,VALID,96.641,VALID,24.3478,VALID,322,VALID,0.274609,
2008-06-13, 08:15:04,VALID,1007.64,VALID,0,VALID,91.9509,VALID,98.5517,VALID,24.3283,VALID,293,VALID,0.627344,
2008-06-13, 08:16:04,VALID,1007.65,VALID,0,VALID,92.3781,VALID,100.362,VALID,24.3673,VALID,293,VALID,0.214844,
2008-06-13, 08:17:04,VALID,1007.64,VALID,0,VALID,92.2332,VALID,102.474,VALID,24.4062,VALID,290,VALID,0.137891,
2008-06-13, 08:18:04,VALID,1007.62,VALID,0,VALID,92.2179,VALID,104.787,VALID,24.4451,VALID,298,VALID,0.575781,
2008-06-13, 08:19:04,VALID,1007.65,VALID,0,VALID,92.2713,VALID,107.602,VALID,24.4646,VALID,293,VALID,0.289844,
2008-06-13, 08:20:04,VALID,1007.62,VALID,0,VALID,92.134,VALID,110.619,VALID,24.4841,VALID,293,VALID,0.648438,
2008-06-13, 08:21:04,VALID,1007.65,VALID,0,VALID,91.8441,VALID,113.837,VALID,24.4841,VALID,284,VALID,0.395312,
2008-06-13, 08:22:04,VALID,1007.65,VALID,0,VALID,92.0501,VALID,116.854,VALID,24.5443,VALID,284,VALID,0.101172,
2008-06-13, 08:23:04,VALID,1007.65,VALID,0,VALID,92.1492,VALID,119.77,VALID,24.5425,VALID,284,VALID,0.135156,
2008-06-13, 08:24:04,VALID,1007.64,VALID,0,VALID,91.6229,VALID,122.486,VALID,24.6028,VALID,290,VALID,1.2875,
2008-06-13, 08:25:04,VALID,1007.65,VALID,0,VALID,91.4321,VALID,125.201,VALID,24.562,VALID,293,VALID,0.517578,
2008-06-13, 08:26:04,VALID,1007.64,VALID,0,VALID,91.8288,VALID,127.614,VALID,24.5814,VALID,300,VALID,0.617969,
2008-06-13, 08:27:04,VALID,1007.65,VALID,0,VALID,91.6839,VALID,130.028,VALID,24.6028,VALID,288,VALID,0.788281,
2008-06-13, 08:28:04,VALID,1007.62,VALID,0,VALID,91.5466,VALID,132.24,VALID,24.6222,VALID,296,VALID,0.821484,
2008-06-13, 08:29:04,VALID,1007.65,VALID,0,VALID,91.4169,VALID,134.252,VALID,24.6009,VALID,291,VALID,0.85625,
2008-06-13, 08:30:04,VALID,1007.61,VALID,0,VALID,91.4779,VALID,136.363,VALID,24.6222,VALID,280,VALID,0.921094,
2008-06-13, 08:31:04,VALID,1007.64,VALID,0,VALID,91.2262,VALID,138.475,VALID,24.6417,VALID,304,VALID,0.771094,
2008-06-13, 08:32:04,VALID,1007.61,VALID,0,VALID,91.4932,VALID,141.391,VALID,24.6204,VALID,292,VALID,0.455078,
2008-06-13, 08:33:04,VALID,1007.59,VALID,0,VALID,91.9967,VALID,143.302,VALID,24.6612,VALID,281,VALID,0.379297,
2008-06-13, 08:34:04,VALID,1007.58,VALID,0,VALID,91.8059,VALID,145.313,VALID,24.6574,VALID,260,VALID,0.391016,
2008-06-13, 08:35:04,VALID,1007.57,VALID,0,VALID,91.5618,VALID,147.224,VALID,24.6574,VALID,281,VALID,0.712109,
2008-06-13, 08:36:04,VALID,1007.56,VALID,0,VALID,92.0272,VALID,149.537,VALID,24.6983,VALID,349,VALID,0.216406,
2008-06-13, 08:37:04,VALID,1007.56,VALID,0,VALID,91.928,VALID,151.951,VALID,24.7372,VALID,215,VALID,0.546484,
2008-06-13, 08:38:04,VALID,1007.52,VALID,0,VALID,91.9967,VALID,154.666,VALID,24.7956,VALID,284,VALID,0.434375,
2008-06-13, 08:39:04,VALID,1007.54,VALID,0,VALID,91.8365,VALID,158.688,VALID,24.7743,VALID,295,VALID,0.464844,
2008-06-13, 08:40:04,VALID,1007.51,VALID,0,VALID,90.9363,VALID,161.705,VALID,24.7567,VALID,314,VALID,0.994141,
2008-06-13, 08:41:04,VALID,1007.52,VALID,0,VALID,91.3406,VALID,164.42,VALID,24.7372,VALID,294,VALID,0.807422,
2008-06-13, 08:42:04,VALID,1007.52,VALID,0,VALID,91.455,VALID,167.337,VALID,24.7567,VALID,301,VALID,0.721484,
2008-06-13, 08:43:04,VALID,1007.48,VALID,0,VALID,91.8059,VALID,171.359,VALID,24.7761,VALID,1,VALID,0.324219,
2008-06-13, 08:44:04,VALID,1007.49,VALID,0,VALID,92.0653,VALID,176.589,VALID,24.8151,VALID,345,VALID,0.252734,
2008-06-13, 08:45:04,VALID,1007.49,VALID,0.5,VALID,92.134,VALID,181.818,VALID,24.8735,VALID,290,VALID,0.573828,
2008-06-13, 08:46:04,VALID,1007.48,VALID,0,VALID,91.6305,VALID,185.74,VALID,24.893,VALID,290,VALID,0.949609,
2008-06-13, 08:47:04,VALID,1007.46,VALID,0,VALID,91.8212,VALID,189.561,VALID,24.9319,VALID,304,VALID,0.249609,
2008-06-13, 08:48:04,VALID,1007.46,VALID,0,VALID,92.0348,VALID,194.589,VALID,24.9904,VALID,336,VALID,0.457031,
2008-06-13, 08:49:04,VALID,1007.44,VALID,0,VALID,91.5389,VALID,199.215,VALID,25.0293,VALID,325,VALID,0.415234,
2008-06-13, 08:50:04,VALID,1007.42,VALID,0,VALID,91.0202,VALID,202.333,VALID,25.0079,VALID,303,VALID,0.832031,
2008-06-13, 08:51:04,VALID,1007.42,VALID,0,VALID,91.0049,VALID,206.456,VALID,25.0098,VALID,289,VALID,0.661719,
2008-06-13, 08:52:04,VALID,1007.42,VALID,0,VALID,91.4626,VALID,210.478,VALID,25.0293,VALID,288,VALID,0.338672,
2008-06-13, 08:53:04,VALID,1007.44,VALID,0,VALID,90.7303,VALID,214.903,VALID,25.0293,VALID,291,VALID,0.817187,
2008-06-13, 08:54:04,VALID,1007.41,VALID,0,VALID,90.9134,VALID,219.73,VALID,25.0488,VALID,291,VALID,0.544531,
2008-06-13, 08:55:04,VALID,1007.42,VALID,0,VALID,90.4633,VALID,224.557,VALID,25.0488,VALID,295,VALID,1.28477,
2008-06-13, 08:56:04,VALID,1007.42,VALID,0,VALID,90.5319,VALID,234.01,VALID,25.0079,VALID,319,VALID,0.874219,
2008-06-13, 08:57:04,VALID,1007.42,VALID,0,VALID,90.6158,VALID,239.641,VALID,25.0293,VALID,316,VALID,0.446094,
2008-06-13, 08:58:04,VALID,1007.4,VALID,0,VALID,91.2414,VALID,245.575,VALID,25.0682,VALID,305,VALID,0.355078,
2008-06-13, 08:59:04,VALID,1007.37,VALID,0,VALID,91.5542,VALID,251.407,VALID,25.1053,VALID,292,VALID,0.330469,
2008-06-13, 09:00:04,VALID,1007.39,VALID,0,VALID,90.4633,VALID,255.631,VALID,25.1461,VALID,288,VALID,1.20156,
2008-06-13, 09:01:04,VALID,1007.37,VALID,0,VALID,90.448,VALID,261.464,VALID,25.1267,VALID,282,VALID,1.20391,
2008-06-13, 09:02:04,VALID,1007.36,VALID,0,VALID,90.8142,VALID,264.078,VALID,25.1461,VALID,269,VALID,0.862109,
2008-06-13, 09:03:04,VALID,1007.37,VALID,0,VALID,90.4175,VALID,269.408,VALID,25.1072,VALID,324,VALID,0.799219,
2008-06-13, 09:04:04,VALID,1007.37,VALID,0,VALID,91.2338,VALID,273.632,VALID,25.1461,VALID,303,VALID,0.560547,
2008-06-13, 09:05:04,VALID,1007.38,VALID,0,VALID,90.0437,VALID,278.358,VALID,25.1656,VALID,288,VALID,1.34531,
2008-06-13, 09:06:04,VALID,1007.38,VALID,0,VALID,90.5701,VALID,283.286,VALID,25.1461,VALID,299,VALID,0.408594,
2008-06-13, 09:07:04,VALID,1007.37,VALID,0,VALID,90.7532,VALID,287.409,VALID,25.1851,VALID,274,VALID,0.961719,
2008-06-13, 09:08:04,VALID,1007.38,VALID,0,VALID,90.1352,VALID,294.046,VALID,25.2435,VALID,302,VALID,0.658984,
2008-06-13, 09:09:04,VALID,1007.39,VALID,0,VALID,90.6921,VALID,300.583,VALID,25.2221,VALID,294,VALID,1.0957,
2008-06-13, 09:10:04,VALID,1007.36,VALID,0,VALID,89.8682,VALID,307.421,VALID,25.3233,VALID,289,VALID,1.42617,
2008-06-13, 09:11:04,VALID,1007.34,VALID,0,VALID,91.1499,VALID,313.756,VALID,25.3623,VALID,253,VALID,0.159766,
2008-06-13, 09:12:04,VALID,1007.37,VALID,0,VALID,90.6616,VALID,320.695,VALID,25.4188,VALID,292,VALID,0.598047,
2008-06-13, 09:13:04,VALID,1007.35,VALID,0,VALID,91.0354,VALID,326.226,VALID,25.4772,VALID,287,VALID,0.653516,
2008-06-13, 09:14:04,VALID,1007.37,VALID,0,VALID,90.3488,VALID,329.947,VALID,25.5571,VALID,289,VALID,0.245312,
2008-06-13, 09:15:04,VALID,1007.37,VALID,0,VALID,89.7461,VALID,337.288,VALID,25.635,VALID,303,VALID,0.892969,
2008-06-13, 09:16:04,VALID,1007.35,VALID,0,VALID,88.6552,VALID,347.344,VALID,25.6155,VALID,297,VALID,1.10664,
2008-06-13, 09:17:04,VALID,1007.35,VALID,0,VALID,88.6705,VALID,356.093,VALID,25.6155,VALID,318,VALID,1.05977,
2008-06-13, 09:18:04,VALID,1007.33,VALID,0,VALID,89.5859,VALID,360.719,VALID,25.6136,VALID,358,VALID,0.464063,